[[{"header":{"parameterUnit":"m.s-1","parameterCategory":2,"la1":30.2992,"la2":30.254,"lo1":-89.0895,"lo2":-89.0443,"dy":0.0025,"dx":0.0025,"nx":19,"ny":19,"refTime":"2026-04-25T09:00:00:Z","depth":"0","parameterNumber":2,"parameterNumberName":"U-component_of_CURRENTS"},"data":[0,0,0,-0.2065,-0.207,-0.2271,-0.2272,-0.2224,-0.2223,0,0,0,0,0,0,0,0,0,0,0,-0.1956,-0.1957,-0.2065,-0.2071,-0.2271,-0.2272,-0.2224,-0.2223,0,0,0,0,0,0,0,0,0,0,0,-0.1955,-0.1957,-0.1958,-0.2072,-0.2271,-0.2272,-0.2224,-0.2142,0,0,0,0,0,0,0,0,0,0,-0.1983,-0.1929,-0.1956,-0.1958,-0.2073,-0.2271,-0.2272,-0.2141,-0.2147,-0.2054,0,-0.2085,0,-0.2175,-0.2215,-0.2215,0,0,0,-0.2045,-0.1925,-0.1996,-0.1958,-0.2075,-0.2271,-0.2173,-0.2147,-0.2153,-0.206,-0.2086,-0.2088,-0.2174,-0.2214,-0.2214,-0.2192,-0.2193,0,0,-0.2034,-0.1971,-0.1992,-0.2,-0.2121,-0.2167,-0.218,-0.2154,-0.2139,-0.2086,-0.2089,-0.2173,-0.2214,-0.2213,-0.2192,-0.2192,0,0,0,-0.2019,-0.1962,-0.2039,-0.1998,-0.2072,-0.2174,-0.2188,-0.214,-0.2171,-0.209,-0.2173,-0.2213,-0.2212,-0.2191,-0.2192,-0.2201,0,0,0,-0.2011,-0.1957,-0.2034,-0.1995,-0.2074,-0.2152,-0.2174,-0.2172,-0.2175,-0.2173,-0.2213,-0.221,-0.219,-0.2191,-0.2199,-0.2134,0,0,0,-0.1948,-0.1951,-0.1977,-0.1991,-0.2099,-0.2156,-0.2186,-0.2176,-0.2224,-0.2215,-0.221,-0.219,-0.2191,-0.2198,-0.2134,-0.1941,0,0,0,-0.1872,-0.1916,-0.1974,-0.205,-0.2097,-0.2223,-0.2188,-0.225,-0.2249,-0.2212,-0.219,-0.2192,-0.2197,-0.2134,-0.1944,-0.163,-0.159,0,0,-0.1893,-0.1916,-0.1969,-0.203,-0.2147,-0.2194,-0.2267,-0.2244,-0.2235,-0.217,-0.2173,-0.22,-0.2134,-0.1942,-0.1718,-0.1673,0,0,0,-0.1956,-0.1982,-0.2025,-0.2116,-0.2213,-0.2251,-0.2291,-0.2277,-0.2263,-0.2252,-0.2228,-0.2185,-0.2062,-0.1883,-0.185,-0.1805,-0.2199,-0.2199,-0.2199,-0.1846,-0.1961,-0.2017,-0.2141,-0.2213,-0.229,-0.2282,-0.2269,-0.2278,-0.2285,-0.2217,-0.2107,-0.1926,-0.1894,-0.1859,-0.2282,-0.2282,-0.2282,-0.2282,-0.1812,-0.1826,-0.1973,-0.2055,-0.2137,-0.2185,-0.2238,-0.2246,-0.2151,-0.2242,-0.2123,-0.1935,-0.1856,-0.1832,-0.2283,-0.2283,-0.2283,-0.2283,-0.2283,-0.1659,-0.168,-0.1751,-0.1848,-0.1925,-0.2049,-0.197,-0.2053,-0.2083,-0.2032,-0.1711,-0.1708,-0.1646,-0.1945,-0.1943,-0.1942,-0.1941,-0.1941,-0.194,-0.1422,-0.1514,-0.1493,-0.1619,-0.1636,-0.1684,-0.1765,-0.1695,-0.1603,-0.1625,-0.1622,-0.1592,-0.1999,-0.1966,-0.1924,-0.1927,-0.1929,-0.193,-0.1931,-0.1245,-0.1249,-0.1201,-0.1196,-0.1244,-0.1139,-0.1269,-0.1073,-0.1018,-0.0885,-0.1054,-0.1363,-0.1275,-0.1301,-0.1249,-0.1023,-0.1023,-0.1023,-0.1022,-0.1069,-0.1093,-0.0973,-0.0905,-0.0844,-0.089,-0.0555,-0.0492,-0.0503,-0.0498,-0.0667,-0.0745,-0.0784,-0.0677,-0.0717,-0.0659,-0.0288,-0.0288,-0.0287,-0.0951,-0.0927,-0.0802,-0.0766,-0.0685,-0.0573,-0.0233,-0.0056,-0.0096,-0.0272,-0.0671,-0.0702,-0.0851,-0.0915,-0.0787,-0.0845,-0.0766,0,0]},{"header":{"parameterUnit":"m.s-1","parameterCategory":2,"la1":30.2992,"la2":30.254,"lo1":-89.0895,"lo2":-89.0443,"dy":0.0025,"dx":0.0025,"nx":19,"ny":19,"refTime":"2026-04-25T09:00:00:Z","depth":"0","parameterNumber":3,"parameterNumberName":"V-component_of_CURRENTS"},"data":[0,0,0,0.0715,0.0716,0.079,0.079,0.0786,0.0786,0,0,0,0,0,0,0,0,0,0,0,0.0682,0.0682,0.0715,0.0716,0.079,0.079,0.0786,0.0786,0,0,0,0,0,0,0,0,0,0,0,0.0682,0.0682,0.0682,0.0716,0.0789,0.079,0.0786,0.0759,0,0,0,0,0,0,0,0,0,0,0.0701,0.0676,0.0682,0.0682,0.0717,0.0789,0.079,0.0759,0.0761,0.072,0,0.0717,0,0.0745,0.0782,0.0782,0,0,0,0.0732,0.0674,0.0695,0.0682,0.0717,0.0789,0.0761,0.0761,0.0763,0.0722,0.0718,0.0719,0.0744,0.0781,0.0781,0.0654,0.0653,0,0,0.0728,0.0696,0.0694,0.0696,0.0715,0.0758,0.0763,0.0763,0.0752,0.0718,0.0719,0.0744,0.0781,0.0781,0.0655,0.0654,0,0,0,0.0705,0.0693,0.0717,0.0695,0.0712,0.076,0.0765,0.0753,0.076,0.072,0.0744,0.0781,0.078,0.0656,0.0654,0.0539,0,0,0,0.0704,0.068,0.0714,0.0697,0.0712,0.0746,0.0754,0.0761,0.0762,0.0744,0.0781,0.0779,0.0657,0.0655,0.0544,0.0515,0,0,0,0.0682,0.0678,0.0681,0.0695,0.0721,0.0747,0.0756,0.0763,0.0775,0.0782,0.0779,0.0658,0.0655,0.0549,0.0522,0.0629,0,0,0,0.0657,0.0627,0.0679,0.0614,0.072,0.0663,0.0757,0.0736,0.073,0.078,0.0657,0.0655,0.0551,0.0527,0.0631,0.0796,0.08,0,0,0.0603,0.062,0.057,0.0617,0.0517,0.0656,0.0568,0.0624,0.0684,0.0655,0.0653,0.0543,0.0523,0.0629,0.0664,0.0674,0,0,0,0.0538,0.0508,0.0476,0.0433,0.0422,0.0422,0.0492,0.0534,0.0554,0.067,0.0529,0.052,0.0593,0.0694,0.07,0.083,0.0644,0.0644,0.0645,0.0418,0.0397,0.0309,0.0275,0.0237,0.0269,0.0293,0.037,0.0417,0.0417,0.0414,0.0398,0.0497,0.0506,0.0633,0.0391,0.0391,0.0391,0.039,0.0317,0.0286,0.0221,0.0153,0.0123,0.008,0.0117,0.0184,0.0269,0.0285,0.0364,0.0549,0.0507,0.064,0.0383,0.0384,0.0385,0.0386,0.0386,0.0287,0.0284,0.0228,0.0131,0.0046,0.0015,0.004,0.0086,0.0193,0.0227,0.0487,0.0491,0.0635,0.0315,0.0315,0.0315,0.0315,0.0316,0.0316,0.0325,0.0269,0.0216,0.0109,0.0044,-0.0013,0.0017,0.0111,0.0309,0.0402,0.0406,0.0641,0.0379,0.0412,0.032,0.0319,0.0319,0.0318,0.0318,0.0314,0.0303,0.026,0.0193,0.0025,0.002,0.0049,0.0321,0.0454,0.0611,0.0806,0.0548,0.0642,0.0639,0.068,0.0664,0.0664,0.0664,0.0664,0.0311,0.0298,0.0251,0.016,0.0035,0.0022,0.0268,0.0526,0.0864,0.1032,0.1015,0.1033,0.1013,0.1129,0.1115,0.1165,0.1273,0.1274,0.1274,0.0251,0.0303,0.0245,0.0178,0.0012,0.0076,0.0378,0.0747,0.1174,0.1304,0.1157,0.1132,0.1155,0.1115,0.1292,0.1263,0.1344,0,0]}],[{"header":{"parameterUnit":"m.s-1","parameterCategory":2,"la1":30.2992,"la2":30.254,"lo1":-89.0895,"lo2":-89.0443,"dy":0.0025,"dx":0.0025,"nx":19,"ny":19,"refTime":"2026-04-25T09:00:00:Z","depth":"2","parameterNumber":2,"parameterNumberName":"U-component_of_CURRENTS"},"data":[0,0,0,-0.1804,-0.1805,-0.1781,-0.1781,-0.1755,-0.1755,0,0,0,0,0,0,0,0,0,0,0,-0.1806,-0.1806,-0.1804,-0.1805,-0.1781,-0.1781,-0.1755,-0.1755,0,0,0,0,0,0,0,0,0,0,0,-0.1806,-0.1806,-0.1806,-0.1805,-0.1782,-0.1781,-0.1755,-0.1765,0,0,0,0,0,0,0,0,0,0,-0.1784,-0.1806,-0.1806,-0.1806,-0.1805,-0.1782,-0.1781,-0.1765,-0.1764,-0.1775,0,-0.1787,0,-0.1787,-0.1756,-0.1756,0,0,0,-0.1777,-0.1807,-0.1797,-0.1806,-0.1805,-0.1782,-0.1784,-0.1765,-0.1764,-0.1775,-0.1786,-0.1786,-0.1786,-0.1756,-0.1756,-0.1829,-0.1829,0,0,-0.1779,-0.1801,-0.1797,-0.1797,-0.1819,-0.1785,-0.1784,-0.1764,-0.1775,-0.1786,-0.1785,-0.1786,-0.1756,-0.1756,-0.1828,-0.1829,0,0,0,-0.1801,-0.1802,-0.1792,-0.1798,-0.1803,-0.1785,-0.1784,-0.1775,-0.1771,-0.1785,-0.1786,-0.1756,-0.1757,-0.1827,-0.1828,-0.1874,0,0,0,-0.18,-0.1817,-0.1793,-0.1805,-0.1803,-0.1792,-0.1795,-0.1772,-0.177,-0.1786,-0.1756,-0.1757,-0.1826,-0.1828,-0.1871,-0.1881,0,0,0,-0.1803,-0.1817,-0.1819,-0.1807,-0.1809,-0.1792,-0.1786,-0.177,-0.1772,-0.1756,-0.1757,-0.1826,-0.1828,-0.1869,-0.1877,-0.1719,0,0,0,-0.1817,-0.1776,-0.182,-0.1769,-0.181,-0.1816,-0.1786,-0.1777,-0.1766,-0.1756,-0.1827,-0.1828,-0.1868,-0.1875,-0.172,-0.1563,-0.1546,0,0,-0.1753,-0.177,-0.1729,-0.1767,-0.1807,-0.1816,-0.1843,-0.1808,-0.1798,-0.1827,-0.1828,-0.1872,-0.1877,-0.1719,-0.1659,-0.1639,0,0,0,-0.1697,-0.1686,-0.1703,-0.1735,-0.1778,-0.1851,-0.1845,-0.1852,-0.1864,-0.1806,-0.1893,-0.1895,-0.1792,-0.1701,-0.1687,-0.1836,-0.1836,-0.1836,-0.1835,-0.1704,-0.1694,-0.1686,-0.1716,-0.176,-0.1873,-0.1898,-0.1917,-0.1912,-0.1933,-0.1948,-0.1887,-0.1799,-0.1784,-0.1972,-0.1972,-0.1972,-0.1972,-0.1973,-0.1622,-0.1579,-0.1661,-0.1629,-0.1777,-0.1827,-0.1938,-0.1963,-0.1967,-0.201,-0.1905,-0.1779,-0.177,-0.1977,-0.1976,-0.1975,-0.1975,-0.1975,-0.1974,-0.1586,-0.1556,-0.1553,-0.1568,-0.1668,-0.1789,-0.1865,-0.1956,-0.1958,-0.1953,-0.1704,-0.1701,-0.1825,-0.1842,-0.1841,-0.1841,-0.184,-0.184,-0.184,-0.1526,-0.1523,-0.1486,-0.1501,-0.153,-0.163,-0.1806,-0.1822,-0.1736,-0.1722,-0.1718,-0.184,-0.1844,-0.1814,-0.183,-0.1832,-0.1833,-0.1834,-0.1835,-0.1373,-0.1415,-0.1337,-0.1337,-0.1389,-0.1386,-0.1576,-0.1531,-0.1499,-0.1379,-0.1535,-0.1545,-0.1475,-0.1486,-0.1447,-0.1365,-0.1365,-0.1365,-0.1365,-0.1298,-0.1307,-0.1214,-0.1189,-0.1205,-0.1273,-0.118,-0.1209,-0.1225,-0.1231,-0.1238,-0.1295,-0.1315,-0.124,-0.1257,-0.1215,-0.1073,-0.1073,-0.1073,-0.121,-0.1201,-0.1107,-0.1099,-0.1104,-0.1107,-0.0932,-0.082,-0.0898,-0.1071,-0.1288,-0.1326,-0.1431,-0.1455,-0.1358,-0.1378,-0.1318,0,0]},{"header":{"parameterUnit":"m.s-1","parameterCategory":2,"la1":30.2992,"la2":30.254,"lo1":-89.0895,"lo2":-89.0443,"dy":0.0025,"dx":0.0025,"nx":19,"ny":19,"refTime":"2026-04-25T09:00:00:Z","depth":"2","parameterNumber":3,"parameterNumberName":"V-component_of_CURRENTS"},"data":[0,0,0,-0.0737,-0.0732,-0.0511,-0.0511,-0.0168,-0.0164,0,0,0,0,0,0,0,0,0,0,0,-0.0856,-0.0856,-0.0737,-0.0731,-0.0512,-0.0511,-0.0168,-0.0164,0,0,0,0,0,0,0,0,0,0,0,-0.0856,-0.0856,-0.0855,-0.0731,-0.0512,-0.0511,-0.0169,-0.0351,0,0,0,0,0,0,0,0,0,0,-0.0573,-0.0669,-0.0856,-0.0855,-0.0729,-0.0512,-0.051,-0.0361,-0.034,-0.0249,0,-0.0243,0,-0.0171,-0.014,-0.0138,0,0,0,-0.0735,-0.0687,-0.064,-0.0855,-0.0727,-0.0512,-0.0612,-0.035,-0.0326,-0.0221,-0.0237,-0.0223,-0.0165,-0.0137,-0.0135,0.0112,0.0112,0,0,-0.0747,-0.079,-0.0657,-0.0627,-0.0702,-0.0619,-0.0605,-0.0336,-0.0315,-0.0236,-0.0214,-0.0159,-0.0135,-0.0132,0.0112,0.0112,0,0,0,-0.078,-0.0798,-0.0759,-0.0642,-0.0593,-0.0612,-0.0596,-0.0328,-0.032,-0.021,-0.0155,-0.0133,-0.0128,0.0112,0.0112,0.0048,0,0,0,-0.0787,-0.0816,-0.0766,-0.0784,-0.0599,-0.0457,-0.0595,-0.0341,-0.0306,-0.0157,-0.0133,-0.0125,0.0112,0.0112,0.005,0.0034,0,0,0,-0.086,-0.0821,-0.0812,-0.0788,-0.0687,-0.046,-0.0436,-0.0332,-0.0271,-0.0138,-0.0124,0.0112,0.0112,0.0052,0.0037,0.016,0,0,0,-0.0889,-0.0877,-0.0814,-0.0768,-0.069,-0.053,-0.0437,-0.0296,-0.019,-0.0131,0.0112,0.0112,0.0052,0.0039,0.0159,0.0148,0.0151,0,0,-0.0892,-0.0878,-0.085,-0.0787,-0.0663,-0.0559,-0.0422,-0.0256,-0.0163,0.0028,0.0034,0.0049,0.0037,0.016,0.014,0.0143,0,0,0,-0.086,-0.0858,-0.0801,-0.0719,-0.0581,-0.0477,-0.03,-0.0227,-0.0086,-0.0097,0.0064,0.006,0.0139,0.0131,0.0133,0.0111,0.0111,0.0111,0.0111,-0.0947,-0.0869,-0.0821,-0.0714,-0.0614,-0.0401,-0.0302,-0.0176,-0.0072,-0.0042,0.0018,0.0079,0.0064,0.0067,0.0025,0.0024,0.0024,0.0024,0.0024,-0.0982,-0.0964,-0.0884,-0.0822,-0.069,-0.0581,-0.034,-0.0244,-0.0009,-0.0015,0.0067,0.0074,0.0066,0.0019,0.002,0.0021,0.0021,0.0021,0.0022,-0.1045,-0.103,-0.1007,-0.0946,-0.0885,-0.0716,-0.0602,-0.0353,-0.0099,0.0011,0.0118,0.0118,0.0094,0.0087,0.0088,0.0088,0.0089,0.0089,0.0089,-0.1117,-0.1089,-0.1103,-0.1064,-0.1057,-0.0996,-0.0703,-0.0512,-0.0133,0.0075,0.0076,0.0103,0.0101,0.0102,0.0096,0.0095,0.0094,0.0093,0.0093,-0.1154,-0.1157,-0.1174,-0.1183,-0.1174,-0.114,-0.0934,-0.0532,-0.022,-0.0021,0.0158,0.0154,0.0206,0.0203,0.0208,0.0232,0.0232,0.0232,0.0232,-0.1189,-0.119,-0.1212,-0.1238,-0.1256,-0.119,-0.0996,-0.0667,-0.019,0.0049,0.0056,-0.003,-0.003,0.0005,0.0007,0.0007,-0.0022,-0.0023,-0.0024,-0.1204,-0.1211,-0.1232,-0.1259,-0.1283,-0.1229,-0.1056,-0.0653,-0.0099,-0.0042,-0.0068,0.023,0.0122,0.0115,0.0183,0.018,0.0186,0,0]}],[{"header":{"parameterUnit":"m.s-1","parameterCategory":2,"la1":30.2992,"la2":30.254,"lo1":-89.0895,"lo2":-89.0443,"dy":0.0025,"dx":0.0025,"nx":19,"ny":19,"refTime":"2026-04-25T09:00:00:Z","depth":"4","parameterNumber":2,"parameterNumberName":"U-component_of_CURRENTS"},"data":[0,0,0,-0.0903,-0.0905,-0.1008,-0.1009,-0.1121,-0.1122,0,0,0,0,0,0,0,0,0,0,0,-0.0866,-0.0867,-0.0903,-0.0905,-0.1008,-0.1009,-0.1121,-0.1122,0,0,0,0,0,0,0,0,0,0,0,-0.0866,-0.0867,-0.0868,-0.0906,-0.1008,-0.1009,-0.1121,-0.1049,0,0,0,0,0,0,0,0,0,0,-0.0952,-0.0929,-0.0867,-0.0868,-0.0906,-0.1008,-0.1009,-0.1046,-0.1053,-0.1068,0,-0.1084,0,-0.1105,-0.1129,-0.113,0,0,0,-0.0909,-0.0923,-0.094,-0.0868,-0.0907,-0.1008,-0.0963,-0.105,-0.1059,-0.1078,-0.1086,-0.1091,-0.1107,-0.113,-0.113,-0.1255,-0.1255,0,0,-0.0903,-0.0896,-0.0934,-0.0946,-0.0934,-0.0959,-0.0966,-0.1056,-0.107,-0.1087,-0.1094,-0.1109,-0.1131,-0.1131,-0.1254,-0.1255,0,0,0,-0.0884,-0.0892,-0.0908,-0.0941,-0.0961,-0.0962,-0.097,-0.1067,-0.1069,-0.1095,-0.111,-0.1131,-0.1132,-0.1254,-0.1254,-0.132,0,0,0,-0.0881,-0.0881,-0.0906,-0.0904,-0.0959,-0.102,-0.0979,-0.1063,-0.1074,-0.111,-0.1131,-0.1133,-0.1253,-0.1254,-0.1317,-0.1323,0,0,0,-0.0861,-0.0879,-0.0888,-0.0903,-0.0945,-0.1019,-0.1028,-0.1066,-0.1083,-0.113,-0.1134,-0.1252,-0.1254,-0.1314,-0.1319,-0.1312,0,0,0,-0.0853,-0.0881,-0.0888,-0.0941,-0.0944,-0.1036,-0.1028,-0.1104,-0.1149,-0.1132,-0.1253,-0.1254,-0.1313,-0.1316,-0.131,-0.1107,0,0,0,-0.0881,-0.0884,-0.0918,-0.0927,-0.1014,-0.1022,-0.1132,-0.118,-0.1172,-0.1221,-0.1224,-0.1318,-0.1318,-0.1311,-0.1194,0,0,0,0,-0.0923,-0.0945,-0.0976,-0.103,-0.1088,-0.1158,-0.1209,-0.1223,-0.1273,-0.1204,-0.1328,-0.1326,-0.132,-0.1197,-0.1261,-0.1261,-0.1261,-0.1261,-0.1261,-0.0929,-0.0975,-0.1043,-0.111,-0.1174,-0.1263,-0.1314,-0.134,-0.134,-0.1364,-0.1389,-0.1439,-0.1315,-0.141,-0.1411,-0.1411,-0.1411,-0.1411,-0.1412,-0.0968,-0.0999,-0.1083,-0.1163,-0.1242,-0.1331,-0.1414,-0.1428,-0.147,-0.1451,-0.1442,-0.1287,-0.1418,-0.1417,-0.1416,-0.1415,-0.1415,-0.1414,-0.1414,-0.0943,-0.0965,-0.1037,-0.115,-0.1253,-0.1355,-0.1407,-0.1479,-0.1502,-0.1528,-0.136,-0.1464,-0.1445,-0.1518,-0.1518,-0.1518,-0.1518,-0.1518,-0.1518,-0.0873,-0.095,-0.1006,-0.1129,-0.1184,-0.1269,-0.1393,-0.1421,-0.1489,-0.1392,-0.1532,-0.1473,-0.147,-0.145,-0.1519,-0.1519,-0.1518,-0.1518,-0.1518,-0.0821,-0.0862,-0.0927,-0.0983,-0.1097,-0.1137,-0.1277,-0.1299,-0.1303,-0.1274,-0.1307,-0.1317,-0.1259,-0.1261,-0.1231,-0.1237,-0.1235,-0.1232,0,-0.076,-0.0793,-0.0854,-0.0901,-0.0938,-0.1051,-0.1015,-0.1085,-0.1151,-0.1089,-0.1315,-0.1351,-0.1357,-0.1292,-0.129,-0.1254,0,0,0,-0.0721,-0.075,-0.0751,-0.0824,-0.0857,-0.09,-0.0996,-0.0967,-0.1127,-0.1113,-0.1172,-0.1188,-0.1433,-0.152,-0.1455,-0.1451,-0.1415,0,0]},{"header":{"parameterUnit":"m.s-1","parameterCategory":2,"la1":30.2992,"la2":30.254,"lo1":-89.0895,"lo2":-89.0443,"dy":0.0025,"dx":0.0025,"nx":19,"ny":19,"refTime":"2026-04-25T09:00:00:Z","depth":"4","parameterNumber":3,"parameterNumberName":"V-component_of_CURRENTS"},"data":[0,0,0,-0.0592,-0.0592,-0.0556,-0.0556,-0.0393,-0.0391,0,0,0,0,0,0,0,0,0,0,0,-0.0603,-0.0603,-0.0592,-0.0592,-0.0557,-0.0556,-0.0393,-0.0391,0,0,0,0,0,0,0,0,0,0,0,-0.0603,-0.0603,-0.0603,-0.0592,-0.0557,-0.0556,-0.0393,-0.0445,0,0,0,0,0,0,0,0,0,0,-0.0491,-0.0535,-0.0603,-0.0603,-0.0592,-0.0557,-0.0556,-0.0448,-0.0441,-0.0381,0,-0.0392,0,-0.0393,-0.0379,-0.0379,0,0,0,-0.0572,-0.0541,-0.0526,-0.0603,-0.0592,-0.0557,-0.0567,-0.0445,-0.0437,-0.0371,-0.0389,-0.0384,-0.0391,-0.0378,-0.0377,-0.0186,-0.0185,0,0,-0.0574,-0.0593,-0.0532,-0.0522,-0.06,-0.0568,-0.0566,-0.0441,-0.0441,-0.0389,-0.0381,-0.0388,-0.0377,-0.0376,-0.0187,-0.0186,0,0,0,-0.0593,-0.0594,-0.0584,-0.0528,-0.0534,-0.0568,-0.0565,-0.0446,-0.0443,-0.0379,-0.0386,-0.0376,-0.0374,-0.0187,-0.0186,-0.0239,0,0,0,-0.0593,-0.0606,-0.0586,-0.0596,-0.0538,-0.0509,-0.0573,-0.0451,-0.0438,-0.0387,-0.0376,-0.0372,-0.0188,-0.0187,-0.024,-0.0289,0,0,0,-0.0601,-0.0607,-0.0608,-0.0597,-0.0591,-0.0512,-0.05,-0.0449,-0.0442,-0.0378,-0.0372,-0.0189,-0.0187,-0.024,-0.0288,-0.0268,0,0,0,-0.0613,-0.0621,-0.0609,-0.0609,-0.0591,-0.0535,-0.0502,-0.0447,-0.0394,-0.0375,-0.0188,-0.0186,-0.024,-0.0287,-0.0268,-0.0329,0,0,0,-0.0626,-0.0624,-0.0618,-0.0606,-0.0582,-0.0537,-0.0476,-0.0399,-0.034,-0.0219,-0.0215,-0.024,-0.0288,-0.0268,-0.0218,0,0,0,0,-0.0623,-0.0629,-0.0613,-0.0603,-0.0552,-0.051,-0.0427,-0.0368,-0.0268,-0.0306,-0.0187,-0.0215,-0.0201,-0.0233,-0.0177,-0.0178,-0.0178,-0.0178,-0.0178,-0.0663,-0.064,-0.064,-0.0605,-0.0567,-0.047,-0.041,-0.0309,-0.0247,-0.0199,-0.0219,-0.0189,-0.0219,-0.0157,-0.0157,-0.0158,-0.0158,-0.0158,-0.0158,-0.0696,-0.0699,-0.0679,-0.0681,-0.062,-0.0565,-0.0407,-0.0344,-0.0223,-0.0191,-0.0175,-0.0237,-0.0162,-0.0161,-0.016,-0.016,-0.016,-0.0159,-0.0159,-0.0727,-0.0729,-0.0746,-0.0758,-0.0738,-0.0646,-0.0583,-0.0449,-0.03,-0.0269,-0.0267,-0.0211,-0.0252,-0.0251,-0.0251,-0.0251,-0.0251,-0.0251,-0.0251,-0.0753,-0.0766,-0.0816,-0.0833,-0.0853,-0.0827,-0.0684,-0.0588,-0.0427,-0.0336,-0.0286,-0.022,-0.0217,-0.0254,-0.0253,-0.0253,-0.0253,-0.0252,-0.0252,-0.0775,-0.0799,-0.0866,-0.091,-0.0952,-0.0928,-0.0832,-0.0641,-0.0534,-0.0423,-0.0343,-0.0338,-0.0324,-0.0318,-0.036,-0.039,-0.0391,-0.0391,0,-0.0791,-0.0807,-0.09,-0.0969,-0.1002,-0.097,-0.0857,-0.0733,-0.0536,-0.0536,-0.0505,-0.0423,-0.0416,-0.0408,-0.0403,-0.0456,0,0,0,-0.0807,-0.0834,-0.0898,-0.0975,-0.1018,-0.0898,-0.0819,-0.0752,-0.0588,-0.0495,-0.0412,-0.0407,-0.0369,-0.0258,-0.0224,-0.0221,-0.0279,0,0]}]]